Year,Month,Day,Hour,Minute,Value (Times are PST for temperature in C)
2013,08,09,00,00,23.40
2013,08,09,00,01,23.40
2013,08,09,00,02,23.40
2013,08,09,00,03,23.30
2013,08,09,00,04,23.30
2013,08,09,00,05,23.30
2013,08,09,00,06,23.20
2013,08,09,00,07,23.20
2013,08,09,00,08,23.10
2013,08,09,00,09,23.10
2013,08,09,00,10,23.10
2013,08,09,00,11,23.10
2013,08,09,00,12,23.10
2013,08,09,00,13,23.10
2013,08,09,00,14,23.10
2013,08,09,00,15,23.00
2013,08,09,00,16,23.00
2013,08,09,00,17,23.00
2013,08,09,00,18,23.00
2013,08,09,00,19,23.00
2013,08,09,00,20,23.00
2013,08,09,00,21,22.90
2013,08,09,00,22,23.00
2013,08,09,00,23,22.90
2013,08,09,00,24,23.00
2013,08,09,00,25,22.90
2013,08,09,00,26,22.90
2013,08,09,00,27,22.90
2013,08,09,00,28,22.90
2013,08,09,00,29,22.90
2013,08,09,00,30,22.90
2013,08,09,00,31,22.80
2013,08,09,00,32,22.80
2013,08,09,00,33,22.80
2013,08,09,00,34,22.80
2013,08,09,00,35,22.80
2013,08,09,00,36,22.80
2013,08,09,00,37,22.80
2013,08,09,00,38,22.80
2013,08,09,00,39,22.80
2013,08,09,00,40,22.70
2013,08,09,00,41,22.70
2013,08,09,00,42,22.70
2013,08,09,00,43,22.70
2013,08,09,00,44,22.70
2013,08,09,00,45,22.70
2013,08,09,00,46,22.70
2013,08,09,00,47,22.70
2013,08,09,00,48,22.70
2013,08,09,00,49,22.70
2013,08,09,00,50,22.70
2013,08,09,00,51,22.70
2013,08,09,00,52,22.70
2013,08,09,00,53,22.70
2013,08,09,00,54,22.60
2013,08,09,00,55,22.60
2013,08,09,00,56,22.60
2013,08,09,00,57,22.60
2013,08,09,00,58,22.60
2013,08,09,00,59,22.60
2013,08,09,01,00,22.60
2013,08,09,01,01,22.60
2013,08,09,01,02,22.60
2013,08,09,01,03,22.50
2013,08,09,01,04,22.50
2013,08,09,01,05,22.50
2013,08,09,01,06,22.40
2013,08,09,01,07,22.40
2013,08,09,01,08,22.40
2013,08,09,01,09,22.40
2013,08,09,01,10,22.30
2013,08,09,01,11,22.30
2013,08,09,01,12,22.30
2013,08,09,01,13,22.20
2013,08,09,01,14,22.20
2013,08,09,01,15,22.20
2013,08,09,01,16,22.20
2013,08,09,01,17,22.10
2013,08,09,01,18,22.10
2013,08,09,01,19,22.00
2013,08,09,01,20,22.00
2013,08,09,01,21,22.00
2013,08,09,01,22,21.90
2013,08,09,01,23,21.90
2013,08,09,01,24,21.80
2013,08,09,01,25,21.80
2013,08,09,01,26,21.70
2013,08,09,01,27,21.70
2013,08,09,01,28,21.60
2013,08,09,01,29,21.60
2013,08,09,01,30,21.50
2013,08,09,01,31,21.50
2013,08,09,01,32,21.40
2013,08,09,01,33,21.30
2013,08,09,01,34,21.20
2013,08,09,01,35,21.10
2013,08,09,01,36,21.00
2013,08,09,01,37,21.00
2013,08,09,01,38,20.90
2013,08,09,01,39,20.80
2013,08,09,01,40,20.80
2013,08,09,01,41,20.70
2013,08,09,01,42,20.70
2013,08,09,01,43,20.70
2013,08,09,01,44,20.60
2013,08,09,01,45,20.60
2013,08,09,01,46,20.60
2013,08,09,01,47,20.50
2013,08,09,01,48,20.50
2013,08,09,01,49,20.50
2013,08,09,01,50,20.50
2013,08,09,01,51,20.40
2013,08,09,01,52,20.40
2013,08,09,01,53,20.50
2013,08,09,01,54,20.50
2013,08,09,01,55,20.50
2013,08,09,01,56,20.60
2013,08,09,01,57,20.60
2013,08,09,01,58,20.70
2013,08,09,01,59,20.70
2013,08,09,02,00,20.80
2013,08,09,02,01,20.80
2013,08,09,02,02,20.80
2013,08,09,02,03,20.90
2013,08,09,02,04,20.90
2013,08,09,02,05,20.90
2013,08,09,02,06,21.00
2013,08,09,02,07,21.00
2013,08,09,02,08,21.00
2013,08,09,02,09,21.00
2013,08,09,02,10,21.10
2013,08,09,02,11,21.10
2013,08,09,02,12,21.10
2013,08,09,02,13,21.10
2013,08,09,02,14,21.10
2013,08,09,02,15,21.10
2013,08,09,02,16,21.10
2013,08,09,02,17,21.10
2013,08,09,02,18,21.10
2013,08,09,02,19,21.20
2013,08,09,02,20,21.20
2013,08,09,02,21,21.30
2013,08,09,02,22,21.30
2013,08,09,02,23,21.40
2013,08,09,02,24,21.40
2013,08,09,02,25,21.50
2013,08,09,02,26,21.50
2013,08,09,02,27,21.60
2013,08,09,02,28,21.60
2013,08,09,02,29,21.60
2013,08,09,02,30,21.60
2013,08,09,02,31,21.60
2013,08,09,02,32,21.60
2013,08,09,02,33,21.60
2013,08,09,02,34,21.60
2013,08,09,02,35,21.60
2013,08,09,02,36,21.70
2013,08,09,02,37,21.70
2013,08,09,02,38,21.70
2013,08,09,02,39,21.80
2013,08,09,02,40,21.80
2013,08,09,02,41,21.80
2013,08,09,02,42,21.80
2013,08,09,02,43,21.80
2013,08,09,02,44,21.80
2013,08,09,02,45,21.80
2013,08,09,02,46,21.80
2013,08,09,02,47,21.70
2013,08,09,02,48,21.70
2013,08,09,02,49,21.70
2013,08,09,02,50,21.70
2013,08,09,02,51,21.70
2013,08,09,02,52,21.60
2013,08,09,02,53,21.60
2013,08,09,02,54,21.60
2013,08,09,02,55,21.60
2013,08,09,02,56,21.60
2013,08,09,02,57,21.60
2013,08,09,02,58,21.60
2013,08,09,02,59,21.60
2013,08,09,03,00,21.60
2013,08,09,03,01,21.60
2013,08,09,03,02,21.60
2013,08,09,03,03,21.70
2013,08,09,03,04,21.70
2013,08,09,03,05,21.70
2013,08,09,03,06,21.70
2013,08,09,03,07,21.70
2013,08,09,03,08,21.60
2013,08,09,03,09,21.60
2013,08,09,03,10,21.60
2013,08,09,03,11,21.60
2013,08,09,03,12,21.60
2013,08,09,03,13,21.60
2013,08,09,03,14,21.60
2013,08,09,03,15,21.60
2013,08,09,03,16,21.50
2013,08,09,03,17,21.50
2013,08,09,03,18,21.40
2013,08,09,03,19,21.40
2013,08,09,03,20,21.40
2013,08,09,03,21,21.30
2013,08,09,03,22,21.30
2013,08,09,03,23,21.30
2013,08,09,03,24,21.20
2013,08,09,03,25,21.20
2013,08,09,03,26,21.20
2013,08,09,03,27,21.20
2013,08,09,03,28,21.20
2013,08,09,03,29,21.20
2013,08,09,03,30,21.20
2013,08,09,03,31,21.20
2013,08,09,03,32,21.20
2013,08,09,03,33,21.20
2013,08,09,03,34,21.20
2013,08,09,03,35,21.20
2013,08,09,03,36,21.10
2013,08,09,03,37,21.10
2013,08,09,03,38,21.10
2013,08,09,03,39,21.10
2013,08,09,03,40,21.00
2013,08,09,03,41,21.00
2013,08,09,03,42,21.00
2013,08,09,03,43,21.00
2013,08,09,03,44,21.00
2013,08,09,03,45,21.10
2013,08,09,03,46,21.10
2013,08,09,03,47,21.10
2013,08,09,03,48,21.20
2013,08,09,03,49,21.20
2013,08,09,03,50,21.20
2013,08,09,03,51,21.20
2013,08,09,03,52,21.20
2013,08,09,03,53,21.10
2013,08,09,03,54,21.10
2013,08,09,03,55,21.00
2013,08,09,03,56,21.00
2013,08,09,03,57,20.90
2013,08,09,03,58,20.90
2013,08,09,03,59,20.80
2013,08,09,04,00,20.80
2013,08,09,04,01,20.70
2013,08,09,04,02,20.60
2013,08,09,04,03,20.50
2013,08,09,04,04,20.50
2013,08,09,04,05,20.40
2013,08,09,04,06,20.40
2013,08,09,04,07,20.30
2013,08,09,04,08,20.30
2013,08,09,04,09,20.30
2013,08,09,04,10,20.30
2013,08,09,04,11,20.30
2013,08,09,04,12,20.30
2013,08,09,04,13,20.40
2013,08,09,04,14,20.40
2013,08,09,04,15,20.40
2013,08,09,04,16,20.40
2013,08,09,04,17,20.40
2013,08,09,04,18,20.30
2013,08,09,04,19,20.30
2013,08,09,04,20,20.30
2013,08,09,04,21,20.20
2013,08,09,04,22,20.20
2013,08,09,04,23,20.10
2013,08,09,04,24,20.00
2013,08,09,04,25,19.90
2013,08,09,04,26,19.90
2013,08,09,04,27,19.80
2013,08,09,04,28,19.80
2013,08,09,04,29,19.70
2013,08,09,04,30,19.70
2013,08,09,04,31,19.70
2013,08,09,04,32,19.60
2013,08,09,04,33,19.60
2013,08,09,04,34,19.50
2013,08,09,04,35,19.50
2013,08,09,04,36,19.40
2013,08,09,04,37,19.40
2013,08,09,04,38,19.40
2013,08,09,04,39,19.40
2013,08,09,04,40,19.40
2013,08,09,04,41,19.30
2013,08,09,04,42,19.30
2013,08,09,04,43,19.30
2013,08,09,04,44,19.30
2013,08,09,04,45,19.30
2013,08,09,04,46,19.30
2013,08,09,04,47,19.30
2013,08,09,04,48,19.30
2013,08,09,04,49,19.40
2013,08,09,04,50,19.50
2013,08,09,04,51,19.50
2013,08,09,04,52,19.60
2013,08,09,04,53,19.70
2013,08,09,04,54,19.80
2013,08,09,04,55,19.80
2013,08,09,04,56,19.80
2013,08,09,04,57,19.90
2013,08,09,04,58,19.90
2013,08,09,04,59,19.90
2013,08,09,05,00,19.90
2013,08,09,05,01,20.00
2013,08,09,05,02,20.10
2013,08,09,05,03,20.10
2013,08,09,05,04,20.10
2013,08,09,05,05,20.20
2013,08,09,05,06,20.20
2013,08,09,05,07,20.20
2013,08,09,05,08,20.20
2013,08,09,05,09,20.20
2013,08,09,05,10,20.20
2013,08,09,05,11,20.20
2013,08,09,05,12,20.20
2013,08,09,05,13,20.10
2013,08,09,05,14,20.10
2013,08,09,05,15,20.10
2013,08,09,05,16,20.10
2013,08,09,05,17,20.00
2013,08,09,05,18,20.00
2013,08,09,05,19,20.00
2013,08,09,05,20,20.00
2013,08,09,05,21,20.00
2013,08,09,05,22,20.00
2013,08,09,05,23,20.10
2013,08,09,05,24,20.10
2013,08,09,05,25,20.10
2013,08,09,05,26,20.10
2013,08,09,05,27,20.10
2013,08,09,05,28,20.10
2013,08,09,05,29,20.00
2013,08,09,05,30,20.00
2013,08,09,05,31,20.00
2013,08,09,05,32,19.90
2013,08,09,05,33,19.90
2013,08,09,05,34,19.90
2013,08,09,05,35,19.90
2013,08,09,05,36,19.90
2013,08,09,05,37,19.90
2013,08,09,05,38,19.90
2013,08,09,05,39,19.90
2013,08,09,05,40,19.90
2013,08,09,05,41,19.90
2013,08,09,05,42,19.90
2013,08,09,05,43,19.90
2013,08,09,05,44,19.90
2013,08,09,05,45,19.90
2013,08,09,05,46,19.90
2013,08,09,05,47,19.90
2013,08,09,05,48,19.90
2013,08,09,05,49,19.90
2013,08,09,05,50,19.90
2013,08,09,05,51,19.90
2013,08,09,05,52,19.90
2013,08,09,05,53,19.90
2013,08,09,05,54,19.90
2013,08,09,05,55,19.90
2013,08,09,05,56,19.90
2013,08,09,05,57,19.90
2013,08,09,05,58,19.90
2013,08,09,05,59,19.90
2013,08,09,06,00,19.80
2013,08,09,06,01,19.80
2013,08,09,06,02,19.80
2013,08,09,06,03,19.80
2013,08,09,06,04,19.80
2013,08,09,06,05,19.80
2013,08,09,06,06,19.70
2013,08,09,06,07,19.70
2013,08,09,06,08,19.70
2013,08,09,06,09,19.70
2013,08,09,06,10,19.60
2013,08,09,06,11,19.60
2013,08,09,06,12,19.60
2013,08,09,06,13,19.50
2013,08,09,06,14,19.50
2013,08,09,06,15,19.40
2013,08,09,06,16,19.50
2013,08,09,06,17,19.40
2013,08,09,06,18,19.50
2013,08,09,06,19,19.50
2013,08,09,06,20,19.40
2013,08,09,06,21,19.50
2013,08,09,06,22,19.50
2013,08,09,06,23,19.40
2013,08,09,06,24,19.40
2013,08,09,06,25,19.40
2013,08,09,06,26,19.40
2013,08,09,06,27,19.40
2013,08,09,06,28,19.40
2013,08,09,06,29,19.40
2013,08,09,06,30,19.40
2013,08,09,06,31,19.40
2013,08,09,06,32,19.40
2013,08,09,06,33,19.40
2013,08,09,06,34,19.40
2013,08,09,06,35,19.40
2013,08,09,06,36,19.30
2013,08,09,06,37,19.30
2013,08,09,06,38,19.40
2013,08,09,06,39,19.40
2013,08,09,06,40,19.40
2013,08,09,06,41,19.40
2013,08,09,06,42,19.40
2013,08,09,06,43,19.40
2013,08,09,06,44,19.40
2013,08,09,06,45,19.40
2013,08,09,06,46,19.50
2013,08,09,06,47,19.50
2013,08,09,06,48,19.60
2013,08,09,06,49,19.60
2013,08,09,06,50,19.60
2013,08,09,06,51,19.60
2013,08,09,06,52,19.70
2013,08,09,06,53,19.70
2013,08,09,06,54,19.70
2013,08,09,06,55,19.70
2013,08,09,06,56,19.80
2013,08,09,06,57,19.80
2013,08,09,06,58,19.80
2013,08,09,06,59,19.80
2013,08,09,07,00,19.90
2013,08,09,07,01,20.00
2013,08,09,07,02,20.10
2013,08,09,07,03,20.10
2013,08,09,07,04,20.20
2013,08,09,07,05,20.20
2013,08,09,07,06,20.20
2013,08,09,07,07,20.30
2013,08,09,07,08,20.30
2013,08,09,07,09,20.30
2013,08,09,07,10,20.30
2013,08,09,07,11,20.40
2013,08,09,07,12,20.40
2013,08,09,07,13,20.40
2013,08,09,07,14,20.40
2013,08,09,07,15,20.40
2013,08,09,07,16,20.40
2013,08,09,07,17,20.40
2013,08,09,07,18,20.50
2013,08,09,07,19,20.50
2013,08,09,07,20,20.50
2013,08,09,07,21,20.50
2013,08,09,07,22,20.60
2013,08,09,07,23,20.60
2013,08,09,07,24,20.60
2013,08,09,07,25,20.70
2013,08,09,07,26,20.70
2013,08,09,07,27,20.70
2013,08,09,07,28,20.80
2013,08,09,07,29,20.80
2013,08,09,07,30,20.80
2013,08,09,07,31,20.80
2013,08,09,07,32,20.80
2013,08,09,07,33,20.90
2013,08,09,07,34,20.90
2013,08,09,07,35,20.90
2013,08,09,07,36,20.90
2013,08,09,07,37,21.00
2013,08,09,07,38,21.00
2013,08,09,07,39,21.00
2013,08,09,07,40,21.10
2013,08,09,07,41,21.10
2013,08,09,07,42,21.10
2013,08,09,07,43,21.10
2013,08,09,07,44,21.20
2013,08,09,07,45,21.20
2013,08,09,07,46,21.20
2013,08,09,07,47,21.20
2013,08,09,07,48,21.30
2013,08,09,07,49,21.30
2013,08,09,07,50,21.30
2013,08,09,07,51,21.30
2013,08,09,07,52,21.30
2013,08,09,07,53,21.40
2013,08,09,07,54,21.40
2013,08,09,07,55,21.40
2013,08,09,07,56,21.40
2013,08,09,07,57,21.50
2013,08,09,07,58,21.50
2013,08,09,07,59,21.50
2013,08,09,08,00,21.60
2013,08,09,08,01,21.60
2013,08,09,08,02,21.60
2013,08,09,08,03,21.60
2013,08,09,08,04,21.70
2013,08,09,08,05,21.70
2013,08,09,08,06,21.70
2013,08,09,08,07,21.70
2013,08,09,08,08,21.80
2013,08,09,08,09,21.80
2013,08,09,08,10,21.80
2013,08,09,08,11,21.90
2013,08,09,08,12,21.90
2013,08,09,08,13,21.90
2013,08,09,08,14,21.90
2013,08,09,08,15,21.90
2013,08,09,08,16,22.00
2013,08,09,08,17,22.00
2013,08,09,08,18,22.00
2013,08,09,08,19,22.00
2013,08,09,08,20,22.10
2013,08,09,08,21,22.10
2013,08,09,08,22,22.10
2013,08,09,08,23,22.10
2013,08,09,08,24,22.10
2013,08,09,08,25,22.10
2013,08,09,08,26,22.20
2013,08,09,08,27,22.20
2013,08,09,08,28,22.20
2013,08,09,08,29,22.20
2013,08,09,08,30,22.20
2013,08,09,08,31,22.20
2013,08,09,08,32,22.20
2013,08,09,08,33,22.30
2013,08,09,08,34,22.30
2013,08,09,08,35,22.30
2013,08,09,08,36,22.30
2013,08,09,08,37,22.30
2013,08,09,08,38,22.40
2013,08,09,08,39,22.40
2013,08,09,08,40,22.40
2013,08,09,08,41,22.40
2013,08,09,08,42,22.50
2013,08,09,08,43,22.50
2013,08,09,08,44,22.50
2013,08,09,08,45,22.60
2013,08,09,08,46,22.60
2013,08,09,08,47,22.60
2013,08,09,08,48,22.70
2013,08,09,08,49,22.70
2013,08,09,08,50,22.70
2013,08,09,08,51,22.80
2013,08,09,08,52,22.80
2013,08,09,08,53,22.80
2013,08,09,08,54,22.90
2013,08,09,08,55,22.90
2013,08,09,08,56,22.90
2013,08,09,08,57,22.90
2013,08,09,08,58,23.00
2013,08,09,08,59,23.00
2013,08,09,09,00,23.00
2013,08,09,09,01,23.00
2013,08,09,09,02,23.00
2013,08,09,09,03,23.00
2013,08,09,09,04,23.10
2013,08,09,09,05,23.10
2013,08,09,09,06,23.10
2013,08,09,09,07,23.10
2013,08,09,09,08,23.10
2013,08,09,09,09,23.10
2013,08,09,09,10,23.10
2013,08,09,09,11,23.10
2013,08,09,09,12,23.10
2013,08,09,09,13,23.10
2013,08,09,09,14,23.10
2013,08,09,09,15,23.20
2013,08,09,09,16,23.20
2013,08,09,09,17,23.30
2013,08,09,09,18,23.30
2013,08,09,09,19,23.30
2013,08,09,09,20,23.40
2013,08,09,09,21,23.40
2013,08,09,09,22,23.50
2013,08,09,09,23,23.60
2013,08,09,09,24,23.60
2013,08,09,09,25,23.60
2013,08,09,09,26,23.60
2013,08,09,09,27,23.60
2013,08,09,09,28,23.60
2013,08,09,09,29,23.50
2013,08,09,09,30,23.50
2013,08,09,09,31,23.50
2013,08,09,09,32,23.40
2013,08,09,09,33,23.40
2013,08,09,09,34,23.40
2013,08,09,09,35,23.40
2013,08,09,09,36,23.40
2013,08,09,09,37,23.40
2013,08,09,09,38,23.40
2013,08,09,09,39,23.40
2013,08,09,09,40,23.30
2013,08,09,09,41,23.40
2013,08,09,09,42,23.40
2013,08,09,09,43,23.40
2013,08,09,09,44,23.40
2013,08,09,09,45,23.40
2013,08,09,09,46,23.30
2013,08,09,09,47,23.30
2013,08,09,09,48,23.30
2013,08,09,09,49,23.30
2013,08,09,09,50,23.30
2013,08,09,09,51,23.30
2013,08,09,09,52,23.40
2013,08,09,09,53,23.40
2013,08,09,09,54,23.40
2013,08,09,09,55,23.40
2013,08,09,09,56,23.40
2013,08,09,09,57,23.40
2013,08,09,09,58,23.40
2013,08,09,09,59,23.40
2013,08,09,10,00,23.40
2013,08,09,10,01,23.40
2013,08,09,10,02,23.30
2013,08,09,10,03,23.20
2013,08,09,10,04,23.10
2013,08,09,10,05,23.10
2013,08,09,10,06,23.10
2013,08,09,10,07,23.10
2013,08,09,10,08,23.10
2013,08,09,10,09,23.10
2013,08,09,10,10,23.10
2013,08,09,10,11,23.00
2013,08,09,10,12,23.00
2013,08,09,10,13,23.00
2013,08,09,10,14,23.00
2013,08,09,10,15,23.00
2013,08,09,10,16,23.10
2013,08,09,10,17,23.10
2013,08,09,10,18,23.10
2013,08,09,10,19,23.10
2013,08,09,10,20,23.00
2013,08,09,10,21,22.90
2013,08,09,10,22,22.90
2013,08,09,10,23,22.90
2013,08,09,10,24,22.90
2013,08,09,10,25,22.80
2013,08,09,10,26,22.90
2013,08,09,10,27,22.90
2013,08,09,10,28,22.90
2013,08,09,10,29,22.90
2013,08,09,10,30,23.00
2013,08,09,10,31,23.00
2013,08,09,10,32,23.00
2013,08,09,10,33,22.90
2013,08,09,10,34,22.90
2013,08,09,10,35,23.00
2013,08,09,10,36,23.00
2013,08,09,10,37,23.10
2013,08,09,10,38,23.10
2013,08,09,10,39,23.10
2013,08,09,10,40,23.20
2013,08,09,10,41,23.30
2013,08,09,10,42,23.30
2013,08,09,10,43,23.30
2013,08,09,10,44,23.30
2013,08,09,10,45,23.40
2013,08,09,10,46,23.40
2013,08,09,10,47,23.40
2013,08,09,10,48,23.50
2013,08,09,10,49,23.50
2013,08,09,10,50,23.50
2013,08,09,10,51,23.50
2013,08,09,10,52,23.60
2013,08,09,10,53,23.60
2013,08,09,10,54,23.60
2013,08,09,10,55,23.60
2013,08,09,10,56,23.70
2013,08,09,10,57,23.70
2013,08,09,10,58,23.70
2013,08,09,10,59,23.80
2013,08,09,11,00,23.80
2013,08,09,11,01,23.80
2013,08,09,11,02,23.90
2013,08,09,11,03,23.90
2013,08,09,11,04,23.90
2013,08,09,11,05,23.90
2013,08,09,11,06,23.80
2013,08,09,11,07,23.80
2013,08,09,11,08,23.90
2013,08,09,11,09,24.00
2013,08,09,11,10,24.00
2013,08,09,11,11,24.00
2013,08,09,11,12,24.00
2013,08,09,11,13,24.00
2013,08,09,11,14,24.00
2013,08,09,11,15,24.10
2013,08,09,11,16,24.20
2013,08,09,11,17,24.20
2013,08,09,11,18,24.10
2013,08,09,11,19,24.10
2013,08,09,11,20,24.10
2013,08,09,11,21,24.10
2013,08,09,11,22,24.20
2013,08,09,11,23,24.20
2013,08,09,11,24,24.20
2013,08,09,11,25,24.30
2013,08,09,11,26,24.30
2013,08,09,11,27,24.40
2013,08,09,11,28,24.40
2013,08,09,11,29,24.40
2013,08,09,11,30,24.50
2013,08,09,11,31,24.50
2013,08,09,11,32,24.60
2013,08,09,11,33,24.60
2013,08,09,11,34,24.60
2013,08,09,11,35,24.60
2013,08,09,11,36,24.60
2013,08,09,11,37,24.70
2013,08,09,11,38,24.60
2013,08,09,11,39,24.60
2013,08,09,11,40,24.60
2013,08,09,11,41,24.70
2013,08,09,11,42,24.70
2013,08,09,11,43,24.70
2013,08,09,11,44,24.70
2013,08,09,11,45,24.80
2013,08,09,11,46,24.80
2013,08,09,11,47,24.90
2013,08,09,11,48,24.90
2013,08,09,11,49,25.00
2013,08,09,11,50,24.90
2013,08,09,11,51,24.90
2013,08,09,11,52,24.80
2013,08,09,11,53,24.80
2013,08,09,11,54,24.70
2013,08,09,11,55,24.70
2013,08,09,11,56,24.70
2013,08,09,11,57,24.70
2013,08,09,11,58,24.70
2013,08,09,11,59,24.70
2013,08,09,12,00,24.70
2013,08,09,12,01,24.80
2013,08,09,12,02,24.80
2013,08,09,12,03,24.80
2013,08,09,12,04,24.90
2013,08,09,12,05,24.90
2013,08,09,12,06,25.00
2013,08,09,12,07,25.00
2013,08,09,12,08,25.00
2013,08,09,12,09,25.00
2013,08,09,12,10,25.10
2013,08,09,12,11,25.20
2013,08,09,12,12,25.30
2013,08,09,12,13,25.30
2013,08,09,12,14,25.30
2013,08,09,12,15,25.30
2013,08,09,12,16,25.30
2013,08,09,12,17,25.30
2013,08,09,12,18,25.20
2013,08,09,12,19,25.20
2013,08,09,12,20,25.20
2013,08,09,12,21,25.20
2013,08,09,12,22,25.20
2013,08,09,12,23,25.10
2013,08,09,12,24,25.10
2013,08,09,12,25,25.10
2013,08,09,12,26,25.10
2013,08,09,12,27,25.10
2013,08,09,12,28,25.10
2013,08,09,12,29,25.00
2013,08,09,12,30,25.00
2013,08,09,12,31,24.90
2013,08,09,12,32,24.90
2013,08,09,12,33,25.00
2013,08,09,12,34,25.10
2013,08,09,12,35,25.20
2013,08,09,12,36,25.20
2013,08,09,12,37,25.20
2013,08,09,12,38,25.20
2013,08,09,12,39,25.20
2013,08,09,12,40,25.10
2013,08,09,12,41,25.00
2013,08,09,12,42,24.90
2013,08,09,12,43,24.80
2013,08,09,12,44,24.80
2013,08,09,12,45,24.80
2013,08,09,12,46,24.80
2013,08,09,12,47,24.90
2013,08,09,12,48,24.90
2013,08,09,12,49,25.00
2013,08,09,12,50,25.00
2013,08,09,12,51,25.00
2013,08,09,12,52,25.00
2013,08,09,12,53,25.10
2013,08,09,12,54,25.10
2013,08,09,12,55,25.10
2013,08,09,12,56,25.10
2013,08,09,12,57,25.10
2013,08,09,12,58,25.10
2013,08,09,12,59,25.20
2013,08,09,13,00,25.20
2013,08,09,13,01,25.10
2013,08,09,13,02,25.10
2013,08,09,13,03,25.00
2013,08,09,13,04,25.00
2013,08,09,13,05,25.00
2013,08,09,13,06,25.00
2013,08,09,13,07,25.00
2013,08,09,13,08,25.00
2013,08,09,13,09,25.10
2013,08,09,13,10,25.20
2013,08,09,13,11,25.30
2013,08,09,13,12,25.40
2013,08,09,13,13,25.40
2013,08,09,13,14,25.50
2013,08,09,13,15,25.50
2013,08,09,13,16,25.50
2013,08,09,13,17,25.60
2013,08,09,13,18,25.60
2013,08,09,13,19,25.70
2013,08,09,13,20,25.80
2013,08,09,13,21,25.90
2013,08,09,13,22,26.00
2013,08,09,13,23,26.10
2013,08,09,13,24,26.20
2013,08,09,13,25,26.20
2013,08,09,13,26,26.10
2013,08,09,13,27,26.10
2013,08,09,13,28,26.20
2013,08,09,13,29,26.20
2013,08,09,13,30,26.20
2013,08,09,13,31,26.20
2013,08,09,13,32,26.20
2013,08,09,13,33,26.30
2013,08,09,13,34,26.40
2013,08,09,13,35,26.40
2013,08,09,13,36,26.40
2013,08,09,13,37,26.40
2013,08,09,13,38,26.40
2013,08,09,13,39,26.40
2013,08,09,13,40,26.40
2013,08,09,13,41,26.40
2013,08,09,13,42,26.50
2013,08,09,13,43,26.60
2013,08,09,13,44,26.70
2013,08,09,13,45,26.80
2013,08,09,13,46,26.80
2013,08,09,13,47,26.90
2013,08,09,13,48,27.00
2013,08,09,13,49,27.10
2013,08,09,13,50,27.10
2013,08,09,13,51,27.10
2013,08,09,13,52,27.00
2013,08,09,13,53,26.90
2013,08,09,13,54,26.90
2013,08,09,13,55,26.80
2013,08,09,13,56,26.80
2013,08,09,13,57,26.90
2013,08,09,13,58,26.90
2013,08,09,13,59,27.00
2013,08,09,14,00,27.10
2013,08,09,14,01,27.20
2013,08,09,14,02,27.30
2013,08,09,14,03,27.30
2013,08,09,14,04,27.30
2013,08,09,14,05,27.40
2013,08,09,14,06,27.50
2013,08,09,14,07,27.60
2013,08,09,14,08,27.50
2013,08,09,14,09,27.50
2013,08,09,14,10,27.50
2013,08,09,14,11,27.60
2013,08,09,14,12,27.60
2013,08,09,14,13,27.70
2013,08,09,14,14,27.70
2013,08,09,14,15,27.70
2013,08,09,14,16,27.70
2013,08,09,14,17,27.70
2013,08,09,14,18,27.80
2013,08,09,14,19,27.80
2013,08,09,14,20,27.80
2013,08,09,14,21,27.80
2013,08,09,14,22,27.80
2013,08,09,14,23,27.80
2013,08,09,14,24,27.80
2013,08,09,14,25,27.80
2013,08,09,14,26,27.70
2013,08,09,14,27,27.70
2013,08,09,14,28,27.80
2013,08,09,14,29,27.80
2013,08,09,14,30,27.80
2013,08,09,14,31,28.00
2013,08,09,14,32,28.10
2013,08,09,14,33,28.20
2013,08,09,14,34,28.30
2013,08,09,14,35,28.30
2013,08,09,14,36,28.30
2013,08,09,14,37,28.30
2013,08,09,14,38,28.40
2013,08,09,14,39,28.50
2013,08,09,14,40,28.50
2013,08,09,14,41,28.50
2013,08,09,14,42,28.40
2013,08,09,14,43,28.40
2013,08,09,14,44,28.30
2013,08,09,14,45,28.30
2013,08,09,14,46,28.30
2013,08,09,14,47,28.40
2013,08,09,14,48,28.40
2013,08,09,14,49,28.50
2013,08,09,14,50,28.50
2013,08,09,14,51,28.50
2013,08,09,14,52,28.50
2013,08,09,14,53,28.40
2013,08,09,14,54,28.40
2013,08,09,14,55,28.40
2013,08,09,14,56,28.40
2013,08,09,14,57,28.50
2013,08,09,14,58,28.60
2013,08,09,14,59,28.70
2013,08,09,15,00,28.70
2013,08,09,15,01,28.70
2013,08,09,15,02,28.70
2013,08,09,15,03,28.70
2013,08,09,15,04,28.70
2013,08,09,15,05,28.80
2013,08,09,15,06,28.80
2013,08,09,15,07,28.90
2013,08,09,15,08,28.90
2013,08,09,15,09,29.00
2013,08,09,15,10,29.10
2013,08,09,15,11,29.10
2013,08,09,15,12,29.10
2013,08,09,15,13,29.10
2013,08,09,15,14,29.10
2013,08,09,15,15,29.20
2013,08,09,15,16,29.20
2013,08,09,15,17,29.10
2013,08,09,15,18,29.00
2013,08,09,15,19,28.90
2013,08,09,15,20,28.80
2013,08,09,15,21,28.80
2013,08,09,15,22,28.80
2013,08,09,15,23,28.80
2013,08,09,15,24,28.80
2013,08,09,15,25,28.80
2013,08,09,15,26,28.80
2013,08,09,15,27,28.80
2013,08,09,15,28,28.80
2013,08,09,15,29,28.80
2013,08,09,15,30,28.90
2013,08,09,15,31,28.90
2013,08,09,15,32,29.00
2013,08,09,15,33,29.10
2013,08,09,15,34,29.10
2013,08,09,15,35,29.20
2013,08,09,15,36,29.20
2013,08,09,15,37,29.30
2013,08,09,15,38,29.30
2013,08,09,15,39,29.30
2013,08,09,15,40,29.30
2013,08,09,15,41,29.30
2013,08,09,15,42,29.40
2013,08,09,15,43,29.40
2013,08,09,15,44,29.40
2013,08,09,15,45,29.40
2013,08,09,15,46,29.40
2013,08,09,15,47,29.40
2013,08,09,15,48,29.30
2013,08,09,15,49,29.30
2013,08,09,15,50,29.20
2013,08,09,15,51,29.20
2013,08,09,15,52,29.20
2013,08,09,15,53,29.20
2013,08,09,15,54,29.20
2013,08,09,15,55,29.30
2013,08,09,15,56,29.30
2013,08,09,15,57,29.20
2013,08,09,15,58,29.30
2013,08,09,15,59,29.20
2013,08,09,16,00,29.20
2013,08,09,16,01,29.20
2013,08,09,16,02,29.20
2013,08,09,16,03,29.20
2013,08,09,16,04,29.20
2013,08,09,16,05,29.20
2013,08,09,16,06,29.20
2013,08,09,16,07,29.20
2013,08,09,16,08,29.30
2013,08,09,16,09,29.30
2013,08,09,16,10,29.40
2013,08,09,16,11,29.40
2013,08,09,16,12,29.50
2013,08,09,16,13,29.60
2013,08,09,16,14,29.60
2013,08,09,16,15,29.70
2013,08,09,16,16,29.70
2013,08,09,16,17,29.70
2013,08,09,16,18,29.70
2013,08,09,16,19,29.70
2013,08,09,16,20,29.60
2013,08,09,16,21,29.50
2013,08,09,16,22,29.50
2013,08,09,16,23,29.40
2013,08,09,16,24,29.40
2013,08,09,16,25,29.50
2013,08,09,16,26,29.50
2013,08,09,16,27,29.60
2013,08,09,16,28,29.60
2013,08,09,16,29,29.50
2013,08,09,16,30,29.50
2013,08,09,16,31,29.50
2013,08,09,16,32,29.50
2013,08,09,16,33,29.60
2013,08,09,16,34,29.60
2013,08,09,16,35,29.70
2013,08,09,16,36,29.80
2013,08,09,16,37,30.00
2013,08,09,16,38,30.10
2013,08,09,16,39,30.10
2013,08,09,16,40,30.10
2013,08,09,16,41,30.10
2013,08,09,16,42,30.10
2013,08,09,16,43,30.10
2013,08,09,16,44,30.10
2013,08,09,16,45,30.00
2013,08,09,16,46,30.00
2013,08,09,16,47,30.10
2013,08,09,16,48,30.10
2013,08,09,16,49,30.10
2013,08,09,16,50,30.10
2013,08,09,16,51,30.10
2013,08,09,16,52,30.10
2013,08,09,16,53,30.20
2013,08,09,16,54,30.20
2013,08,09,16,55,30.20
2013,08,09,16,56,30.20
2013,08,09,16,57,30.20
2013,08,09,16,58,30.30
2013,08,09,16,59,30.30
2013,08,09,17,00,30.40
2013,08,09,17,01,30.40
2013,08,09,17,02,30.50
2013,08,09,17,03,30.50
2013,08,09,17,04,30.50
2013,08,09,17,05,30.50
2013,08,09,17,06,30.40
2013,08,09,17,07,30.40
2013,08,09,17,08,30.40
2013,08,09,17,09,30.40
2013,08,09,17,10,30.40
2013,08,09,17,11,30.40
2013,08,09,17,12,30.40
2013,08,09,17,13,30.40
2013,08,09,17,14,30.40
2013,08,09,17,15,30.40
2013,08,09,17,16,30.40
2013,08,09,17,17,30.30
2013,08,09,17,18,30.30
2013,08,09,17,19,30.30